Regional Weather Roundup
Issued by NWS

Home | Current Version | Previous Version | Graphics & Text | Print | Product List | Glossary On
Versions: 1 2 3 4 5 6 7 8 9 10 11 12 13 14 15 16 17 18 19 20 21 22 23 24 25 26 27 28 29 30 31 32 33 34 35 36 37 38 39 40 41 42 43 44 45 46 47 48 49 50
000
ASUS43 KIND 231359
RWRIN

WEATHER ROUNDUP FOR INDIANA
NATIONAL WEATHER SERVICE INDIANAPOLIS IN
1000 AM EDT WED JUL 23 2014

NOTE: "FAIR" INDICATES FEW OR NO CLOUDS BELOW 12,000 FEET WITH NO
SIGNIFICANT WEATHER AND/OR OBSTRUCTIONS TO VISIBILITY.

* - STATION DOES NOT REPORT WEATHER SUCH AS PRECIPITATION OR FOG.

+ - STATION NOT QUALITY CONTROLLED BY THE NATIONAL WEATHER SERVICE.
    USE DATA WITH CAUTION...ESPECIALLY DEWPOINT AND RELATIVE
    HUMIDITY OBSERVATIONS.

INZ001>003-010>013-019-020-231500-
NORTHWEST INDIANA

CITY           SKY/WX    TMP DP  RH WIND       PRES   REMARKS
GARY /AIRPORT/ PTSUNNY   68  59  73 N14G28    30.13R
KNOX *+        SUNNY     68  60  74 N12       30.07F
MONTICELLO +   CLOUDY    68  65  91 N6        30.06S
VALPARAISO     CLOUDY    67  60  78 N13G20    30.10S

$$

LMZ046-743>745-231500-
SOUTHERN LAKE MICHIGAN

STATION/POSITION TIME  TEMP WIND        PRES
                       AIR  DIR/SP/G
                 (UTC) (F)  (DEG/KT/KT) (MB)
MICHIGAN CITY    1300   65  360/ 21/ 27   N/A

$$

INZ004-005-014>016-021>024-231500-
NORTH CENTRAL INDIANA

CITY           SKY/WX    TMP DP  RH WIND       PRES   REMARKS
ELKHART        CLOUDY    64  59  82 N8        30.07S
GOSHEN         CLOUDY    65  63  93 N13       30.05S
SOUTH BEND     CLOUDY    66  59  78 N12       30.08F
WARSAW +       CLOUDY    64  63  94 N8        30.05S

$$

INZ006>009-017-018-025>027-231500-
NORTHEAST INDIANA

CITY           SKY/WX    TMP DP  RH WIND       PRES   REMARKS
ANGOLA *+      CLOUDY    66  57  72 N9        30.03S
FORT WAYNE     CLOUDY    71  67  87 W5        30.03F

$$

INZ028-029-035-036-043>045-051>053-231500-
WEST CENTRAL INDIANA

CITY           SKY/WX    TMP DP  RH WIND       PRES   REMARKS
GREENCASTLE +  CLOUDY    72  70  94 NW3       30.05R FOG
LAFAYETTE      CLOUDY    69  65  86 N10       30.06R
TERRE HAUTE    LGT RAIN  73  70  90 S5        30.03S FOG

$$

INZ030>032-037>040-046>048-054>057-064-065-231500-
CENTRAL INDIANA

CITY           SKY/WX    TMP DP  RH WIND       PRES   REMARKS
ANDERSON       CLOUDY    73  66  78 W6        30.08R
INDIANAPOLIS   TSTM      69  68  96 E6        30.06R VSB 1/2
-EAGLE CREEK   TSTM      70  68  93 CALM      30.06R VSB 1
KOKOMO *+      CLOUDY    70  70 100 NW8       30.05S
MT COMFORT *+  CLOUDY    70 N/A N/A W14       30.12R
SHELBYVILLE    TSTM      73  69  87 NW10      30.09R FOG

$$

INZ033-034-041-042-049-050-058-059-231500-
EAST CENTRAL INDIANA

CITY           SKY/WX    TMP DP  RH WIND       PRES   REMARKS
MUNCIE         CLOUDY    72  66  81 W9        30.06S

$$

INZ060-061-067>069-081>083-085>088-231500-
SOUTHWEST INDIANA

CITY           SKY/WX    TMP DP  RH WIND       PRES   REMARKS
EVANSVILLE     LGT RAIN  74  65  73 SW10      30.03F
HUNTINGBURG *+ CLOUDY    73  68  83 SW5       30.06S

$$

INZ062-063-066-070>080-084-089>092-231500-
SOUTH CENTRAL AND SOUTHEAST INDIANA

CITY           SKY/WX    TMP DP  RH WIND       PRES   REMARKS
BLOOMINGTON    TSTM      71  68  90 S13       29.98F

$$



USA.gov is the U.S. government's official web portal to all federal, state and local government web resources and services.